Time,TemperatureF,DewpointF,PressureIn,WindDirection,WindDirectionDegrees,WindSpeedMPH,WindSpeedGustMPH,Humidity,HourlyPrecipIn,Conditions,Clouds,dailyrainin,SoftwareType,DateUTC
2013-06-06 00:03:00,70.0,56.0,29.92,NNE,30,3.0,3.0,61,0.00,,,0.01,,2013-06-06 04:03:00,
2013-06-06 00:13:00,70.0,56.0,29.92,NNE,30,3.0,3.0,61,0.00,,,0.01,,2013-06-06 04:13:00,
2013-06-06 00:23:00,69.0,55.0,29.91,NE,41,3.0,3.0,61,0.00,,,0.01,,2013-06-06 04:23:00,
2013-06-06 00:33:00,69.0,55.0,29.91,NNE,31,3.0,5.0,62,0.00,,,0.01,,2013-06-06 04:33:00,
2013-06-06 00:42:00,69.0,57.0,29.90,North,359,2.0,3.0,65,0.00,,,0.01,,2013-06-06 04:42:00,
2013-06-06 00:53:00,69.0,57.0,29.90,North,359,2.0,3.0,65,0.00,,,0.01,,2013-06-06 04:53:00,
2013-06-06 01:02:00,67.0,57.0,29.89,NNE,18,3.0,0.0,71,0.00,,,0.01,,2013-06-06 05:02:00,
2013-06-06 01:12:00,67.0,58.0,29.89,ENE,70,2.0,2.0,72,0.00,,,0.02,,2013-06-06 05:12:00,
2013-06-06 01:22:00,67.0,58.0,29.89,ENE,70,2.0,2.0,72,0.00,,,0.02,,2013-06-06 05:22:00,
2013-06-06 01:32:00,66.0,57.0,29.91,NNE,32,0.0,0.0,74,0.00,,,0.02,,2013-06-06 05:32:00,
2013-06-06 01:42:00,66.0,57.0,29.91,NNE,32,0.0,0.0,74,0.00,,,0.02,,2013-06-06 05:42:00,
2013-06-06 01:52:00,65.0,58.0,29.90,ENE,77,0.0,0.0,79,0.00,,,0.02,,2013-06-06 05:52:00,
2013-06-06 02:02:00,64.0,60.0,29.89,ENE,70,1.0,2.0,88,0.00,,,0.02,,2013-06-06 06:02:00,
2013-06-06 02:12:00,63.0,60.0,29.88,ENE,68,1.0,1.0,91,0.02,,,0.02,,2013-06-06 06:12:00,
2013-06-06 02:22:00,63.0,60.0,29.88,ENE,68,1.0,1.0,91,0.02,,,0.02,,2013-06-06 06:22:00,
2013-06-06 02:33:00,63.0,62.0,29.88,NE,51,1.0,2.0,95,0.02,,,0.02,,2013-06-06 06:33:00,
2013-06-06 02:42:00,63.0,62.0,29.88,NE,51,1.0,2.0,95,0.02,,,0.02,,2013-06-06 06:42:00,
2013-06-06 02:52:00,64.0,63.0,29.88,ESE,105,3.0,3.0,97,0.02,,,0.02,,2013-06-06 06:52:00,
2013-06-06 03:02:00,64.0,64.0,29.87,ESE,113,0.0,3.0,100,0.02,,,0.02,,2013-06-06 07:02:00,
2013-06-06 03:12:00,64.0,64.0,29.87,ESE,113,0.0,3.0,100,0.02,,,0.02,,2013-06-06 07:12:00,
2013-06-06 03:22:00,64.0,64.0,29.86,East,79,2.0,2.0,100,0.00,,,0.02,,2013-06-06 07:22:00,
2013-06-06 03:32:00,64.0,64.0,29.86,East,94,2.0,2.0,100,0.00,,,0.02,,2013-06-06 07:32:00,
2013-06-06 03:42:00,64.0,64.0,29.86,East,94,2.0,2.0,100,0.00,,,0.02,,2013-06-06 07:42:00,
2013-06-06 03:52:00,63.0,63.0,29.86,ESE,118,1.0,3.0,100,0.00,,,0.02,,2013-06-06 07:52:00,
2013-06-06 04:02:00,63.0,63.0,29.86,NE,35,1.0,1.0,100,0.00,,,0.02,,2013-06-06 08:02:00,
2013-06-06 04:12:00,63.0,63.0,29.85,NNE,25,1.0,0.0,100,0.01,,,0.02,,2013-06-06 08:12:00,
2013-06-06 04:22:00,63.0,63.0,29.85,NNE,25,1.0,0.0,100,0.01,,,0.02,,2013-06-06 08:22:00,
2013-06-06 04:32:00,63.0,63.0,29.84,NNE,21,0.0,0.0,100,0.01,,,0.02,,2013-06-06 08:32:00,
2013-06-06 04:42:00,63.0,63.0,29.84,NNE,21,0.0,0.0,100,0.01,,,0.02,,2013-06-06 08:42:00,
2013-06-06 04:52:00,63.0,63.0,29.84,NNE,21,0.0,0.0,100,0.01,,,0.02,,2013-06-06 08:52:00,
2013-06-06 05:02:00,63.0,63.0,29.84,NNE,21,0.0,0.0,100,0.01,,,0.02,,2013-06-06 09:02:00,
2013-06-06 05:12:00,63.0,63.0,29.83,NNE,21,0.0,0.0,100,0.00,,,0.02,,2013-06-06 09:12:00,
2013-06-06 05:22:00,63.0,63.0,29.83,NNE,21,0.0,0.0,100,0.00,,,0.02,,2013-06-06 09:22:00,
2013-06-06 05:33:00,63.0,63.0,29.83,NNE,21,0.0,0.0,100,0.00,,,0.02,,2013-06-06 09:33:00,
2013-06-06 05:43:00,63.0,63.0,29.83,NNE,21,0.0,0.0,100,0.00,,,0.02,,2013-06-06 09:43:00,
2013-06-06 05:53:00,63.0,63.0,29.84,NNE,21,0.0,0.0,100,0.00,,,0.02,,2013-06-06 09:53:00,
2013-06-06 06:03:00,63.0,63.0,29.84,North,6,0.0,0.0,100,0.00,,,0.02,,2013-06-06 10:03:00,
2013-06-06 06:12:00,63.0,63.0,29.84,North,6,0.0,0.0,100,0.00,,,0.02,,2013-06-06 10:12:00,
2013-06-06 06:23:00,63.0,63.0,29.84,North,6,0.0,0.0,100,0.00,,,0.02,,2013-06-06 10:23:00,
2013-06-06 06:33:00,63.0,63.0,29.85,North,1,0.0,0.0,100,0.00,,,0.02,,2013-06-06 10:33:00,
2013-06-06 06:42:00,63.0,63.0,29.84,North,1,0.0,0.0,100,0.00,,,0.02,,2013-06-06 10:42:00,
2013-06-06 06:52:00,63.0,63.0,29.84,North,1,0.0,0.0,100,0.00,,,0.02,,2013-06-06 10:52:00,
2013-06-06 07:02:00,63.0,63.0,29.84,North,1,0.0,0.0,100,0.00,,,0.02,,2013-06-06 11:02:00,
2013-06-06 07:12:00,63.0,63.0,29.84,North,1,0.0,0.0,100,0.00,,,0.02,,2013-06-06 11:12:00,
2013-06-06 07:22:00,63.0,63.0,29.84,NNE,15,0.0,0.0,100,0.00,,,0.02,,2013-06-06 11:22:00,
2013-06-06 07:32:00,62.0,62.0,29.84,NW,304,0.0,0.0,100,0.00,,,0.02,,2013-06-06 11:32:00,
2013-06-06 07:42:00,62.0,62.0,29.84,NW,304,0.0,0.0,100,0.00,,,0.02,,2013-06-06 11:42:00,
2013-06-06 07:52:00,62.0,62.0,29.84,NW,304,0.0,0.0,100,0.00,,,0.02,,2013-06-06 11:52:00,
2013-06-06 08:03:00,62.0,62.0,29.84,NW,309,0.0,0.0,100,0.00,,,0.02,,2013-06-06 12:03:00,
2013-06-06 08:12:00,62.0,62.0,29.84,NW,309,0.0,0.0,100,0.00,,,0.02,,2013-06-06 12:12:00,
2013-06-06 08:23:00,63.0,63.0,29.83,West,259,0.0,0.0,100,0.00,,,0.02,,2013-06-06 12:23:00,
2013-06-06 08:33:00,63.0,63.0,29.83,West,278,0.0,1.0,100,0.00,,,0.02,,2013-06-06 12:33:00,
2013-06-06 08:43:00,63.0,63.0,29.83,West,262,0.0,0.0,100,0.00,,,0.02,,2013-06-06 12:43:00,
2013-06-06 08:52:00,63.0,63.0,29.83,West,262,0.0,0.0,100,0.00,,,0.02,,2013-06-06 12:52:00,
2013-06-06 09:03:00,63.0,63.0,29.83,NE,39,2.0,2.0,100,0.00,,,0.02,,2013-06-06 13:03:00,
2013-06-06 09:13:00,63.0,63.0,29.83,NE,39,2.0,2.0,100,0.00,,,0.02,,2013-06-06 13:13:00,
2013-06-06 09:23:00,63.0,63.0,29.83,NE,39,2.0,2.0,100,0.00,,,0.02,,2013-06-06 13:23:00,
2013-06-06 09:33:00,64.0,64.0,29.82,East,97,2.0,2.0,100,0.00,,,0.02,,2013-06-06 13:33:00,
2013-06-06 09:43:00,64.0,64.0,29.82,NNE,18,0.0,0.0,100,0.00,,,0.02,,2013-06-06 13:43:00,
2013-06-06 09:53:00,64.0,64.0,29.82,NNE,18,0.0,0.0,100,0.00,,,0.02,,2013-06-06 13:53:00,
2013-06-06 10:03:00,64.0,64.0,29.82,NE,37,3.0,3.0,100,0.00,,,0.02,,2013-06-06 14:03:00,
2013-06-06 10:13:00,65.0,65.0,29.83,NNE,23,4.0,4.0,100,0.00,,,0.02,,2013-06-06 14:13:00,
2013-06-06 10:23:00,65.0,65.0,29.83,NNE,23,4.0,4.0,100,0.00,,,0.02,,2013-06-06 14:23:00,
2013-06-06 10:33:00,65.0,65.0,29.83,ENE,58,5.0,5.0,100,0.00,,,0.02,,2013-06-06 14:33:00,
2013-06-06 10:43:00,65.0,65.0,29.83,ENE,58,5.0,5.0,100,0.00,,,0.02,,2013-06-06 14:43:00,
2013-06-06 10:52:00,64.0,64.0,29.83,NE,52,3.0,3.0,100,0.00,,,0.02,,2013-06-06 14:52:00,
2013-06-06 11:03:00,63.0,63.0,29.83,NE,41,4.0,5.0,100,0.00,,,0.02,,2013-06-06 15:03:00,
2013-06-06 11:13:00,63.0,63.0,29.83,ENE,66,4.0,4.0,100,0.00,,,0.02,,2013-06-06 15:13:00,
2013-06-06 11:23:00,63.0,63.0,29.83,ENE,66,4.0,4.0,100,0.00,,,0.02,,2013-06-06 15:23:00,
2013-06-06 11:33:00,63.0,63.0,29.83,NNE,20,4.0,5.0,100,0.00,,,0.02,,2013-06-06 15:33:00,
2013-06-06 11:43:00,63.0,63.0,29.83,NNE,20,4.0,5.0,100,0.00,,,0.02,,2013-06-06 15:43:00,
2013-06-06 11:53:00,63.0,63.0,29.82,NE,55,5.0,5.0,100,0.00,,,0.02,,2013-06-06 15:53:00,
2013-06-06 12:03:00,63.0,63.0,29.82,NNE,17,3.0,7.0,100,0.00,,,0.02,,2013-06-06 16:03:00,
2013-06-06 12:13:00,63.0,63.0,29.82,NNE,17,3.0,7.0,100,0.00,,,0.02,,2013-06-06 16:13:00,
2013-06-06 12:23:00,63.0,63.0,29.83,North,7,2.0,2.0,100,0.01,,,0.02,,2013-06-06 16:23:00,
2013-06-06 12:33:00,63.0,63.0,29.84,NE,41,2.0,0.0,100,0.01,,,0.02,,2013-06-06 16:33:00,
2013-06-06 12:44:00,63.0,63.0,29.84,NE,41,2.0,0.0,100,0.01,,,0.02,,2013-06-06 16:44:00,
2013-06-06 12:52:00,63.0,63.0,29.83,NE,34,3.0,3.0,100,0.01,,,0.02,,2013-06-06 16:52:00,
2013-06-06 13:03:00,63.0,63.0,29.83,ENE,63,4.0,4.0,100,0.01,,,0.02,,2013-06-06 17:03:00,
2013-06-06 13:13:00,63.0,63.0,29.83,North,6,2.0,2.0,100,0.12,,,0.02,,2013-06-06 17:13:00,
2013-06-06 13:23:00,63.0,63.0,29.83,North,6,2.0,2.0,100,0.12,,,0.02,,2013-06-06 17:23:00,
2013-06-06 13:33:00,63.0,63.0,29.83,NNE,18,4.0,4.0,100,0.12,,,0.02,,2013-06-06 17:33:00,
2013-06-06 13:43:00,63.0,63.0,29.83,NNE,18,4.0,4.0,100,0.12,,,0.02,,2013-06-06 17:43:00,
2013-06-06 13:52:00,62.0,62.0,29.82,ENE,62,2.0,2.0,100,0.12,,,0.02,,2013-06-06 17:52:00,
2013-06-06 14:03:00,63.0,63.0,29.83,NE,46,0.0,0.0,100,0.12,,,0.02,,2013-06-06 18:03:00,
2013-06-06 14:13:00,63.0,63.0,29.83,NE,46,0.0,0.0,100,0.12,,,0.02,,2013-06-06 18:13:00,
2013-06-06 14:23:00,63.0,63.0,29.82,NE,46,0.0,0.0,100,0.12,,,0.02,,2013-06-06 18:23:00,
2013-06-06 14:33:00,63.0,63.0,29.81,NE,46,0.0,0.0,100,0.12,,,0.02,,2013-06-06 18:33:00,
2013-06-06 14:43:00,63.0,63.0,29.81,NE,46,0.0,0.0,100,0.12,,,0.02,,2013-06-06 18:43:00,
2013-06-06 14:53:00,64.0,64.0,29.82,NE,46,0.0,0.0,100,0.12,,,0.02,,2013-06-06 18:53:00,
2013-06-06 15:03:00,64.0,64.0,29.81,NE,46,0.0,0.0,100,0.12,,,0.02,,2013-06-06 19:03:00,
2013-06-06 15:13:00,65.0,65.0,29.80,NE,46,0.0,0.0,100,0.02,,,0.02,,2013-06-06 19:13:00,
2013-06-06 15:23:00,65.0,65.0,29.80,NE,46,0.0,0.0,100,0.02,,,0.02,,2013-06-06 19:23:00,
2013-06-06 15:43:00,65.0,65.0,29.80,NE,46,0.0,0.0,100,0.02,,,0.02,,2013-06-06 19:43:00,
2013-06-06 15:52:00,65.0,65.0,29.81,NE,52,3.0,4.0,100,0.02,,,0.02,,2013-06-06 19:52:00,
2013-06-06 16:03:00,66.0,66.0,29.80,NNE,17,1.0,0.0,100,0.02,,,0.02,,2013-06-06 20:03:00,
2013-06-06 16:13:00,66.0,66.0,29.80,NNE,17,1.0,0.0,100,0.02,,,0.02,,2013-06-06 20:13:00,
2013-06-06 16:23:00,66.0,66.0,29.80,NNE,32,3.0,3.0,100,0.02,,,0.02,,2013-06-06 20:23:00,
2013-06-06 16:33:00,67.0,67.0,29.80,ENE,76,1.0,2.0,100,0.02,,,0.02,,2013-06-06 20:33:00,
2013-06-06 16:42:00,67.0,67.0,29.80,ENE,76,1.0,2.0,100,0.02,,,0.02,,2013-06-06 20:42:00,
2013-06-06 16:53:00,67.0,67.0,29.80,East,96,5.0,5.0,100,0.02,,,0.02,,2013-06-06 20:53:00,
2013-06-06 17:03:00,67.0,67.0,29.80,NNE,27,4.0,5.0,100,0.02,,,0.02,,2013-06-06 21:03:00,
2013-06-06 17:13:00,67.0,66.0,29.80,NE,37,4.0,4.0,98,0.01,,,0.02,,2013-06-06 21:13:00,
2013-06-06 17:23:00,67.0,66.0,29.80,NE,37,4.0,4.0,98,0.01,,,0.02,,2013-06-06 21:23:00,
2013-06-06 17:33:00,68.0,67.0,29.79,East,84,4.0,4.0,96,0.01,,,0.02,,2013-06-06 21:33:00,
2013-06-06 17:43:00,68.0,67.0,29.79,East,84,4.0,4.0,96,0.01,,,0.02,,2013-06-06 21:43:00,
2013-06-06 17:53:00,68.0,67.0,29.80,North,359,2.0,2.0,97,0.01,,,0.02,,2013-06-06 21:53:00,
2013-06-06 18:03:00,68.0,67.0,29.81,NE,49,4.0,5.0,95,0.01,,,0.02,,2013-06-06 22:03:00,
2013-06-06 18:13:00,67.0,66.0,29.81,WSW,250,0.0,0.0,96,0.00,,,0.02,,2013-06-06 22:13:00,
2013-06-06 18:23:00,67.0,66.0,29.81,WSW,250,0.0,0.0,96,0.00,,,0.02,,2013-06-06 22:23:00,
2013-06-06 18:33:00,66.0,65.0,29.81,North,6,1.0,4.0,97,0.00,,,0.02,,2013-06-06 22:33:00,
2013-06-06 18:43:00,66.0,65.0,29.81,North,6,1.0,4.0,97,0.00,,,0.02,,2013-06-06 22:43:00,
2013-06-06 18:53:00,66.0,65.0,29.82,NE,51,3.0,3.0,97,0.00,,,0.02,,2013-06-06 22:53:00,
2013-06-06 19:03:00,65.0,64.0,29.81,NNE,17,4.0,4.0,97,0.00,,,0.02,,2013-06-06 23:03:00,
2013-06-06 19:13:00,64.0,63.0,29.82,NNW,336,6.0,6.0,97,0.00,,,0.02,,2013-06-06 23:13:00,
2013-06-06 19:22:00,64.0,63.0,29.82,NNW,336,6.0,6.0,97,0.00,,,0.02,,2013-06-06 23:22:00,
2013-06-06 19:33:00,64.0,63.0,29.83,NNE,24,6.0,6.0,97,0.00,,,0.02,,2013-06-06 23:33:00,
2013-06-06 19:43:00,64.0,63.0,29.83,NNE,24,6.0,6.0,97,0.00,,,0.02,,2013-06-06 23:43:00,
2013-06-06 19:52:00,64.0,63.0,29.83,NNE,32,4.0,0.0,97,0.00,,,0.02,,2013-06-06 23:52:00,
2013-06-06 20:02:00,64.0,63.0,29.83,NE,38,0.0,0.0,97,0.00,,,0.02,,2013-06-07 00:02:00,
2013-06-06 20:12:00,64.0,63.0,29.83,NE,38,0.0,0.0,97,0.00,,,0.02,,2013-06-07 00:12:00,
2013-06-06 20:22:00,64.0,63.0,29.83,NE,38,0.0,0.0,97,0.00,,,0.02,,2013-06-07 00:22:00,
2013-06-06 20:32:00,63.0,62.0,29.83,NNE,24,0.0,0.0,98,0.00,,,0.02,,2013-06-07 00:32:00,
2013-06-06 20:42:00,63.0,62.0,29.83,NNE,24,0.0,0.0,98,0.00,,,0.02,,2013-06-07 00:42:00,
2013-06-06 20:52:00,63.0,62.0,29.84,NNE,24,0.0,0.0,98,0.00,,,0.02,,2013-06-07 00:52:00,
2013-06-06 21:03:00,62.0,61.0,29.84,NNE,24,0.0,0.0,98,0.00,,,0.02,,2013-06-07 01:03:00,
2013-06-06 21:12:00,61.0,61.0,29.84,ENE,76,3.0,3.0,99,0.00,,,0.02,,2013-06-07 01:12:00,
2013-06-06 21:22:00,61.0,61.0,29.84,ENE,76,3.0,3.0,99,0.00,,,0.02,,2013-06-07 01:22:00,
2013-06-06 21:32:00,60.0,60.0,29.85,North,359,4.0,4.0,100,0.00,,,0.02,,2013-06-07 01:32:00,
2013-06-06 21:42:00,60.0,60.0,29.85,North,359,4.0,4.0,100,0.00,,,0.02,,2013-06-07 01:42:00,
2013-06-06 21:52:00,60.0,60.0,29.85,ENE,60,6.0,6.0,100,0.00,,,0.02,,2013-06-07 01:52:00,
2013-06-06 22:02:00,59.0,59.0,29.85,NNE,25,3.0,9.0,100,0.00,,,0.02,,2013-06-07 02:02:00,
2013-06-06 22:12:00,59.0,59.0,29.85,NNE,25,3.0,9.0,100,0.00,,,0.02,,2013-06-07 02:12:00,
2013-06-06 22:22:00,59.0,59.0,29.85,North,1,5.0,8.0,100,0.00,,,0.02,,2013-06-07 02:22:00,
2013-06-06 22:32:00,59.0,59.0,29.86,NNE,28,4.0,4.0,100,0.00,,,0.02,,2013-06-07 02:32:00,
2013-06-06 22:42:00,59.0,59.0,29.86,NNE,28,4.0,4.0,100,0.00,,,0.02,,2013-06-07 02:42:00,
2013-06-06 22:52:00,59.0,59.0,29.86,North,11,2.0,6.0,100,0.00,,,0.02,,2013-06-07 02:52:00,
2013-06-06 23:02:00,58.0,58.0,29.85,East,94,3.0,3.0,100,0.00,,,0.02,,2013-06-07 03:02:00,
2013-06-06 23:12:00,58.0,58.0,29.85,NNE,28,6.0,6.0,100,0.00,,,0.02,,2013-06-07 03:12:00,
2013-06-06 23:22:00,58.0,58.0,29.85,NNE,28,6.0,6.0,100,0.00,,,0.02,,2013-06-07 03:22:00,
2013-06-06 23:33:00,58.0,58.0,29.86,NNE,17,3.0,5.0,100,0.00,,,0.02,,2013-06-07 03:33:00,
2013-06-06 23:43:00,58.0,58.0,29.86,NNE,17,3.0,5.0,100,0.00,,,0.02,,2013-06-07 03:43:00,
2013-06-06 23:53:00,58.0,58.0,29.86,NE,52,4.0,4.0,100,0.00,,,0.02,,2013-06-07 03:53:00,